Clines Corner, NM

3:14 PM MDT on May 28, 2017 (GMT -0600)
Clines Corner

Weather History for KCQC - February, 2013

Change the Weather History Date:

Thursday, February 7, 2013

  Actual Average (KSAF) Record (KSAF)
Temperature  
Mean Temperature 37 °F -  
Max Temperature 48 °F 0 °F 64 °F (2015)
Min Temperature 26 °F - 12 °F (2004)
Degree Days  
Heating Degree Days 28    
Moisture  
Dew Point 18 °F    
Average Humidity 51    
Maximum Humidity 71    
Minimum Humidity 27    
Precipitation  
Precipitation 0.00 in - - ()
Sea Level Pressure  
Sea Level Pressure 30.07 in    
Wind  
Wind Speed 7 mph (SSW)    
Max Wind Speed 13 mph    
Max Gust Speed 20 mph    
Visibility 10 miles    
Events      
Averages and records for this station are not official NWS values.
T = Trace of Precipitation, MM = Missing Value Source: NWS Daily Summary

Daily Weather History Graph

Daily Weather History Graph

Search for Another Location

Airport or City:

Trip Planner

Search our weather history database for the weather conditions in past years. The results will help you decide how hot, cold, wet, or windy it might be!

Date:

Astronomy

Feb. 07, 2013 Rise Set
Actual Time 6:56 AM MST 5:37 PM MST
Civil Twilight 6:29 AM MST 6:04 PM MST
Nautical Twilight 5:59 AM MST 6:34 PM MST
Astronomical Twilight 5:30 AM MST 7:03 PM MST
Moon 4:34 AM MST (2/7) 3:08 PM MST (2/7)
Length of Visible Light 11h 34m
Length of Day
10h 41m
Waning Crescent, 8% of the Moon is Illuminated
Feb 7
Waning Crescent
Feb 10
New
Feb 17
First Quarter
Feb 25
Full
Mar 4
Last Quarter

Hourly Weather History & Observations

Time (MST) Temp. Windchill Dew Point Humidity Pressure Visibility Wind Dir Wind Speed Gust Speed Precip Events Conditions
12:53 AM 27.0 °F 19.5 °F 18.0 °F 69% 29.93 in 10.0 mi WNW 6.9 mph - N/A   Clear
1:53 AM 30.0 °F 23.2 °F 19.0 °F 64% 29.94 in 10.0 mi WNW 6.9 mph - N/A   Clear
2:53 AM 27.0 °F 18.7 °F 18.0 °F 69% 29.95 in 10.0 mi NW 8.1 mph - N/A   Clear
3:53 AM 32.0 °F 24.2 °F 19.9 °F 61% 29.94 in 10.0 mi NW 9.2 mph - N/A   Clear
4:53 AM 28.0 °F 20.0 °F 19.0 °F 69% 29.99 in 10.0 mi WNW 8.1 mph - N/A   Clear
5:53 AM 30.0 °F 25.2 °F 19.9 °F 66% 30.01 in 10.0 mi NW 4.6 mph - N/A   Clear
6:53 AM 26.1 °F 17.6 °F 18.0 °F 71% 30.06 in 10.0 mi WNW 8.1 mph - N/A   Clear
7:53 AM 33.1 °F - 21.9 °F 64% 30.07 in 10.0 mi Calm Calm - N/A   Clear
8:53 AM 39.0 °F 35.7 °F 23.0 °F 53% 30.09 in 10.0 mi NNW 4.6 mph - N/A   Clear
9:53 AM 41.0 °F 39.0 °F 21.9 °F 47% 30.08 in 10.0 mi ESE 3.5 mph - N/A   Clear
10:53 AM 44.1 °F 40.8 °F 19.9 °F 38% 30.09 in 10.0 mi Variable 5.8 mph - N/A   Clear
11:53 AM 46.0 °F - 19.9 °F 35% 30.10 in 10.0 mi Calm Calm - N/A   Mostly Cloudy
12:53 PM 46.9 °F - 18.0 °F 32% 30.09 in 10.0 mi SSW 3.5 mph - N/A   Partly Cloudy
1:53 PM 46.0 °F 40.2 °F 17.1 °F 31% 30.06 in 10.0 mi South 12.7 mph 17.3 mph N/A   Mostly Cloudy
2:53 PM 46.9 °F - 15.1 °F 28% 30.07 in 10.0 mi SSW 3.5 mph - N/A   Mostly Cloudy
3:53 PM 48.9 °F - 16.0 °F 27% 30.04 in 10.0 mi South 8.1 mph 19.6 mph N/A   Mostly Cloudy
4:53 PM 45.0 °F 40.6 °F 16.0 °F 31% 30.09 in 10.0 mi South 8.1 mph - N/A   Clear
5:53 PM 39.9 °F 33.9 °F 19.0 °F 43% 30.13 in 10.0 mi SSE 9.2 mph - N/A   Clear
6:53 PM 36.0 °F 28.0 °F 19.0 °F 50% 30.19 in 10.0 mi SSE 11.5 mph - N/A   Clear
7:53 PM 35.1 °F 26.4 °F 18.0 °F 50% 30.17 in 10.0 mi SSE 12.7 mph - N/A   Clear
8:53 PM 33.1 °F 24.4 °F 18.0 °F 54% 30.16 in 10.0 mi SSE 11.5 mph - N/A   Clear
9:53 PM 30.9 °F 21.7 °F 17.1 °F 57% 30.16 in 10.0 mi SSE 11.5 mph - N/A   Clear
10:53 PM 28.9 °F 21.1 °F 16.0 °F 58% 30.14 in 10.0 mi SE 8.1 mph - N/A   Clear
11:53 PM 28.9 °F 18.6 °F 16.0 °F 58% 30.13 in 10.0 mi SSE 12.7 mph - N/A   Clear